Weather History for KLAR - August, 2012

Change the Weather History Date:

Monday, August 27, 2012

  Actual Average Record
Temperature  
Mean Temperature 66 °F 60 °F  
Max Temperature 85 °F 76 °F 88 °F (1994)
Min Temperature 46 °F 45 °F 31 °F (1992)
Degree Days  
Heating Degree Days 0 5  
Month to date heating degree days 43 80  
Since 1 June heating degree days 137 390  
Since 1 July heating degree days 55 149  
Cooling Degree Days 1 0  
Month to date cooling degree days 35 17  
Year to date cooling degree days 203 64  
Since 1 June cooling degree days 203 64  
Growing Degree Days 16 (Base 50)    
Moisture  
Dew Point 35 °F    
Average Humidity 37    
Maximum Humidity 57    
Minimum Humidity 17    
Precipitation  
Precipitation T in 0.04 in 0.33 in (1967)
Month to date precipitation 0.32 1.09  
Year to date precipitation 4.40 8.01  
Sea Level Pressure  
Sea Level Pressure 30.13 in    
Wind  
Wind Speed 8 mph (South)    
Max Wind Speed 26 mph    
Max Gust Speed 35 mph    
Visibility 10 miles    
Events Thunderstorm    
T = Trace of Precipitation, MM = Missing Value Source: NWS Daily Summary

Daily Weather History Graph

Daily Weather History Graph

Search for Another Location

Airport or City:

Trip Planner

Search our weather history database for the weather conditions in past years. The results will help you decide how hot, cold, wet, or windy it might be!

Date:

Astronomy

Aug. 27, 2012 Rise Set
Actual Time 6:24 AM MDT 7:42 PM MDT
Civil Twilight 5:55 AM MDT 8:11 PM MDT
Nautical Twilight 5:21 AM MDT 8:45 PM MDT
Astronomical Twilight 4:45 AM MDT 9:21 PM MDT
Moon 5:05 PM MDT (8/27) 2:09 AM MDT (8/27)
Length of Visible Light 14h 15m
Length of Day
13h 18m
Waxing Gibbous, 83% of the Moon is Illuminated
Aug 27
Waxing Gibbous
Aug 31
Full
Sep 8
Last Quarter
Sep 15
New
Sep 22
First Quarter

Hourly Weather History & Observations

Time (MDT) Temp. Dew Point Humidity Pressure Visibility Wind Dir Wind Speed Gust Speed Precip Events Conditions
12:53 AM 61.0 °F 23.0 °F 23% 29.99 in 10.0 mi South 11.5 mph - N/A   Clear
1:53 AM 59.0 °F 21.9 °F 24% 29.98 in 10.0 mi South 10.4 mph - N/A   Clear
2:53 AM 59.0 °F 23.0 °F 25% 29.98 in 10.0 mi South 11.5 mph - N/A   Clear
3:53 AM 53.1 °F 24.1 °F 32% 30.00 in 10.0 mi SW 5.8 mph - N/A   Clear
4:53 AM 50.0 °F 28.0 °F 43% 30.03 in 10.0 mi SSW 9.2 mph - N/A   Clear
5:53 AM 48.9 °F 26.1 °F 41% 30.05 in 10.0 mi South 6.9 mph - N/A   Clear
6:53 AM 50.0 °F 27.0 °F 41% 30.08 in 10.0 mi South 8.1 mph - N/A   Clear
7:53 AM 60.1 °F 28.9 °F 31% 30.07 in 10.0 mi SSE 3.5 mph - N/A   Partly Cloudy
8:53 AM 66.9 °F 30.9 °F 26% 30.06 in 10.0 mi SSE 6.9 mph - N/A   Clear
9:53 AM 73.0 °F 32.0 °F 22% 30.05 in 10.0 mi SSW 8.1 mph - N/A   Clear
10:53 AM 78.8 °F 33.8 °F 20% 30.40 in 10.0 mi West 8.1 mph - N/A   Partly Cloudy
11:17 AM 78.8 °F 33.8 °F 20% 30.40 in 10.0 mi North 11.5 mph - N/A   Partly Cloudy
11:53 AM 81.0 °F 35.1 °F 19% 30.04 in 10.0 mi WNW 8.1 mph - N/A   Clear
12:53 PM 84.9 °F 36.0 °F 17% 30.00 in 10.0 mi Variable 4.6 mph - N/A   Scattered Clouds
1:53 PM 82.9 °F 36.0 °F 19% 30.01 in 10.0 mi SW 10.4 mph 16.1 mph N/A   Clear
2:25 PM 80.6 °F 39.2 °F 23% 30.36 in 10.0 mi NNW 26.5 mph 34.5 mph N/A Thunderstorm Clear
2:38 PM 82.4 °F 39.2 °F 21% 30.35 in 10.0 mi NNE 21.9 mph 29.9 mph N/A   Clear
2:53 PM 78.1 °F 39.9 °F 25% 30.01 in 10.0 mi NNE 15.0 mph 28.8 mph N/A Thunderstorm Clear
3:12 PM 77.0 °F 39.2 °F 26% 30.38 in 10.0 mi North 10.4 mph - N/A   Mostly Cloudy
3:53 PM 80.1 °F 37.9 °F 22% 30.03 in 10.0 mi Variable 5.8 mph - N/A   Partly Cloudy
4:14 PM 80.6 °F 37.4 °F 21% 30.37 in 10.0 mi East 6.9 mph - N/A Thunderstorm Mostly Cloudy
4:38 PM 73.4 °F 42.8 °F 33% 30.42 in 10.0 mi SSW 6.9 mph 19.6 mph N/A   Mostly Cloudy
4:53 PM 75.9 °F 42.1 °F 30% 30.10 in 10.0 mi Variable 5.8 mph - N/A   Overcast
5:53 PM 73.9 °F 42.1 °F 32% 30.10 in 10.0 mi ESE 6.9 mph - N/A   Mostly Cloudy
6:53 PM 73.9 °F 42.1 °F 32% 30.08 in 10.0 mi ESE 4.6 mph - N/A   Mostly Cloudy
7:53 PM 69.1 °F 45.0 °F 42% 30.07 in 10.0 mi South 9.2 mph - 0.00 in   Overcast
8:53 PM 69.1 °F 44.1 °F 40% 30.04 in 10.0 mi South 10.4 mph - N/A   Scattered Clouds
9:53 PM 64.4 °F 44.6 °F 49% 30.39 in 10.0 mi SW 12.7 mph - N/A   Partly Cloudy
10:53 PM 60.1 °F 42.1 °F 51% 30.04 in 10.0 mi SW 6.9 mph - N/A   Clear
11:53 PM 57.0 °F 43.0 °F 59% 30.05 in 10.0 mi SSE 9.2 mph - N/A   Clear